sat.trackr.live / text

‹ back to catalog

STARLINK-35479

NORAD 66326 · 2025-253H

PAYLOAD ACTIVE UNKNOWN

§ Identity

Operator
Country
US
Launch date
2025-11-06
Launch site
AFETR
Launch vehicle
Mass (kg)
RCS (m²)

Purposes: comms

External: N2YO · Heavens-Above · Gunter

§ Orbital elements

Epoch: 2026-09-20T05:06:34.517664Z

Period
94.27 min
Inclination
43.0021°
Eccentricity
0.0001366
Mean motion
15.27582089 rev/d
Perigee alt
482.1 km
Apogee alt
484.0 km
Semi-major
6,861.2 km
B*
3.0479e-4
RAAN
193.9977°
Arg perigee
279.1665°
Mean anomaly
80.9032°
Rev number
4,999

§ Raw data

STARLINK-354791 66326U 25253H   26263.21289951  .00008135  00000+0  30479-3 0  99982 66326  43.0021 193.9977 0001366 279.1665  80.9032 15.27582089 49992

JSON: /api/v1/satellites/66326 · /tle

For live sub-satellite position, see the globe view (requires WebGL).

§ Visibility from observer

Set your observer location to see the next 7 days of passes ≥ 10°. The values pass through the URL so the page stays shareable.

No JS? Fill the form by hand. The geolocation button needs JavaScript.